Regional Weather Roundup
Issued by NWS

Home | Current Version | Previous Version | Graphics & Text | Print | Product List | Glossary On
Versions: 1 2 3 4 5 6 7 8 9 10 11 12 13 14 15 16 17 18 19 20 21 22 23 24 25 26 27 28 29 30 31 32 33 34 35 36 37 38 39 40 41 42 43 44 45 46 47 48 49 50
000
ASUS43 KFSD 142202
RWRSD

WEATHER ROUNDUP FOR SOUTH DAKOTA
NATIONAL WEATHER SERVICE SIOUX FALLS SD
500 PM CDT SUN SEP 14 2014

NOTE: "FAIR" INDICATES FEW OR NO CLOUDS BELOW 12,000 FEET WITH NO
SIGNIFICANT WEATHER AND/OR OBSTRUCTIONS TO VISIBILITY.


SDZ001>005-009-010-012>017-142300-
NORTHWEST AND NORTH CENTRAL SOUTH DAKOTA

CITY           SKY/WX    TMP DP  RH WIND       PRES   REMARKS
FAITH            N/A     54  38  54 E5        30.13S
MOBRIDGE       PTSUNNY   57  37  47 E3        30.11S
$$

SDZ012>016-024>037-041>051-057-063-072>074-142300-
SOUTHWEST AND SOUTH CENTRAL SOUTH DAKOTA

CITY           SKY/WX    TMP DP  RH WIND       PRES   REMARKS
RAPID CTY ARPT PTSUNNY   54  39  57 E9        30.11F
PIERRE         CLOUDY    55  38  52 NE6       30.12R
CUSTER         MOSUNNY   50  37  61 E7        30.10F
PHILIP         CLOUDY    54  38  54 E10       30.12F
PINE RIDGE     PTSUNNY   61  44  53 NE9       30.06S
WINNER         CLOUDY    60  43  53 NE12      30.09S
$$

SDZ004>011-016>023-039-040-142300-
NORTHEAST SOUTH DAKOTA

CITY           SKY/WX    TMP DP  RH WIND       PRES   REMARKS
ABERDEEN       MOSUNNY   59  38  45 N7        30.12S
WATERTOWN      CLOUDY    57  36  45 NW8       30.12F
SISSETON         N/A     59  39  47 VRB6      30.11F
$$

SDZ017-020-022-023-036>040-048>070-142300-
SOUTHEAST SOUTH DAKOTA

CITY           SKY/WX    TMP DP  RH WIND       PRES   REMARKS
SIOUX FALLS    CLOUDY    67  45  45 CALM      30.11S
HURON          LGT RAIN  53  43  68 NE7       30.13S
CHAMBERLAIN    CLOUDY    55  42  61 NE7       30.11R
MITCHELL       CLOUDY    58  44  60 N7        30.13S
YANKTON        SUNNY     64  46  52 E5        30.08F
$$

ABBREVIATIONS USED IN REMARKS
   TC - TEMPERATURE IN CELSIUS
  WCI - WIND CHILL INDEX
   HX - HEAT INDEX
  VSB - VISIBILITY



USA.gov is the U.S. government's official web portal to all federal, state and local government web resources and services.